Regional Weather Roundup
Issued by NWS

Home | Current Version | Previous Version | Text Only | Print | Product List | Glossary Off
Versions: 1 2 3 4 5 6 7 8 9 10 11 12 13 14 15 16 17 18 19 20 21 22 23 24 25 26 27 28 29 30 31 32 33 34 35 36 37 38 39 40 41 42 43 44 45 46 47 48 49 50

000
ASUS43 KBIS 031302
RWRND

NORTH DAKOTA REGIONAL WEATHER ROUNDUP
NATIONAL WEATHER SERVICE BISMARCK ND
800 AM CDT MON AUG 03 2015

NOTE: "FAIR" INDICATES FEW OR NO CLOUDS BELOW 12,000 FEET WITH NO
SIGNIFICANT WEATHER AND/OR OBSTRUCTIONS TO VISIBILITY.


NDZ001>003-009>011-017-031400-
NORTHWEST NORTH DAKOTA

CITY           SKY/WX    TMP DP  RH WIND       PRES   REMARKS
WILLISTON      SUNNY     56  50  80 CALM      30.05R
MINOT          SUNNY     59  49  69 W7        30.01R
$$

NDZ018>021-031>035-040>046-031400-
SOUTHWEST NORTH DAKOTA

CITY           SKY/WX    TMP DP  RH WIND       PRES   REMARKS
BISMARCK       SUNNY     59  53  80 W5        30.03R
DICKINSON      SUNNY     55  50  83 CALM      30.05R
GARRISON         N/A     56  52  86 NW3       30.03R
HETTINGER ARPT SUNNY     51  47  86 CALM      30.07R
$$

NDZ004>008-012>016-024-026-027-054-031400-
NORTHEAST NORTH DAKOTA

CITY           SKY/WX    TMP DP  RH WIND       PRES   REMARKS
GRAND FORKS    SUNNY     57  52  83 W7        29.92R
DEVILS LAKE    SUNNY     57  48  72 NW9       29.96S
$$

NDZ022-023-025-028>030-036>039-047>053-031400-
SOUTHEAST NORTH DAKOTA

CITY           SKY/WX    TMP DP  RH WIND       PRES   REMARKS
FARGO          SUNNY     59  52  77 VRB3      29.93S
JAMESTOWN      SUNNY     60  52  74 NW10      29.98R
$$




USA.gov is the U.S. government's official web portal to all federal, state and local government web resources and services.